Gillette, WY

4:57 PM MDT on June 26, 2017 (GMT -0600)
Gillette-Campbell County

Weather History for KGCC - May, 2012

Change the Weather History Date:

Tuesday, May 22, 2012

  Actual Average Record
Temperature  
Mean Temperature 64 °F 55 °F  
Max Temperature 78 °F 68 °F 91 °F (1980)
Min Temperature 49 °F 42 °F 27 °F (1969)
Degree Days  
Heating Degree Days 1 11  
Month to date heating degree days 242 301  
Since 1 July heating degree days 6516 7317  
Cooling Degree Days 0 0  
Month to date cooling degree days 8 0  
Year to date cooling degree days 10 0  
Growing Degree Days 15 (Base 50)    
Moisture  
Dew Point 40 °F    
Average Humidity 49    
Maximum Humidity 71    
Minimum Humidity 27    
Precipitation  
Precipitation 0.00 in 0.09 in 2.00 in (1952)
Month to date precipitation 0.54 1.69  
Year to date precipitation 4.47 4.90  
Sea Level Pressure  
Sea Level Pressure 29.54 in    
Wind  
Wind Speed 12 mph (NW)    
Max Wind Speed 26 mph    
Max Gust Speed 32 mph    
Visibility 10 miles    
Events      
T = Trace of Precipitation, MM = Missing Value Source: NWS Daily Summary

Daily Weather History Graph

Daily Weather History Graph

Search for Another Location

Airport or City:

Trip Planner

Search our weather history database for the weather conditions in past years. The results will help you decide how hot, cold, wet, or windy it might be!

Date:

Astronomy

May. 22, 2012 Rise Set
Actual Time 5:27 AM MDT 8:30 PM MDT
Civil Twilight 4:53 AM MDT 9:05 PM MDT
Nautical Twilight 4:08 AM MDT 9:49 PM MDT
Astronomical Twilight 3:15 AM MDT 10:43 PM MDT
Moon 6:39 AM MDT (5/22) 10:11 PM MDT (5/22)
Length of Visible Light 16h 12m
Length of Day
15h 03m
Waxing Crescent, 3% of the Moon is Illuminated
May 22
Waxing Crescent
May 28
First Quarter
Jun 4
Full
Jun 11
Last Quarter
Jun 19
New

Hourly Weather History & Observations

Time (MDT) Temp. Dew Point Humidity Pressure Visibility Wind Dir Wind Speed Gust Speed Precip Events Conditions
12:53 AM 62.1 °F 34.0 °F 35% 29.67 in 10.0 mi South 16.1 mph - N/A   Clear
1:53 AM 64.0 °F 33.1 °F 31% 29.63 in 10.0 mi South 18.4 mph - N/A   Clear
2:53 AM 63.0 °F 33.1 °F 33% 29.60 in 10.0 mi South 18.4 mph - N/A   Clear
3:53 AM 63.0 °F 33.1 °F 33% 29.57 in 10.0 mi South 18.4 mph - N/A   Clear
4:53 AM 62.1 °F 35.1 °F 37% 29.55 in 10.0 mi South 18.4 mph - N/A   Clear
5:53 AM 63.0 °F 34.0 °F 34% 29.52 in 10.0 mi South 17.3 mph - N/A   Clear
6:53 AM 64.0 °F 35.1 °F 34% 29.50 in 10.0 mi South 19.6 mph - N/A   Clear
7:53 AM 64.9 °F 35.1 °F 33% 29.52 in 10.0 mi South 13.8 mph 24.2 mph N/A   Clear
8:53 AM 68.0 °F 37.0 °F 32% 29.56 in 10.0 mi Calm Calm - N/A   Clear
9:53 AM 73.0 °F 37.0 °F 27% 29.54 in 10.0 mi NW 9.2 mph - N/A   Clear
10:53 AM 73.9 °F 43.0 °F 33% 29.52 in 10.0 mi North 15.0 mph - N/A   Clear
11:53 AM 75.0 °F 44.1 °F 33% 29.53 in 10.0 mi North 5.8 mph - N/A   Clear
12:53 PM 75.2 °F 44.6 °F 34% 29.63 in 10.0 mi North 8.1 mph - N/A   Clear
1:53 PM 73.9 °F 44.1 °F 34% 29.48 in 10.0 mi NNW 6.9 mph - N/A   Clear
2:53 PM 78.1 °F 45.0 °F 31% 29.44 in 10.0 mi North 5.8 mph - N/A   Clear
3:53 PM 77.0 °F 44.1 °F 31% 29.43 in 10.0 mi North 3.5 mph - N/A   Clear
4:53 PM 75.0 °F 44.1 °F 33% 29.44 in 10.0 mi NW 13.8 mph - N/A   Clear
5:53 PM 73.0 °F 43.0 °F 34% 29.46 in 10.0 mi WNW 11.5 mph - N/A   Clear
6:53 PM 68.0 °F 46.9 °F 47% 29.49 in 10.0 mi NNW 12.7 mph - N/A   Clear
7:53 PM 62.1 °F 43.0 °F 50% 29.55 in 10.0 mi NNW 17.3 mph 26.5 mph N/A   Overcast
8:53 PM 59.0 °F 43.0 °F 55% 29.58 in 10.0 mi NNW 18.4 mph 26.5 mph N/A   Partly Cloudy
9:53 PM 55.9 °F 43.0 °F 62% 29.62 in 10.0 mi NNW 17.3 mph 24.2 mph N/A   Mostly Cloudy
10:53 PM 52.0 °F 41.0 °F 66% 29.60 in 10.0 mi NNW 11.5 mph - N/A   Clear
11:53 PM 52.0 °F 42.1 °F 69% 29.60 in 10.0 mi Calm Calm - N/A   Overcast